Regional Weather Roundup
Issued by NWS

Home | Current Version | Previous Version | Text Only | Print | Product List | Glossary Off
Versions: 1 2 3 4 5 6 7 8 9 10 11 12 13 14 15 16 17 18 19 20 21 22 23 24 25 26 27 28 29 30 31 32 33 34 35 36 37 38 39 40 41 42 43 44 45 46 47 48 49 50

000
ASUS43 KOAX 210502
RWRNE

WEATHER ROUNDUP FOR NEBRASKA
NATIONAL WEATHER SERVICE OMAHA NE
1100 PM CST FRI JAN 20 2017

NOTES: SATELLITE DATA IS BEING USED TO AUGMENT CLOUD COVER ABOVE
       12000 FEET.
       "FAIR" INDICATES FEW OR NO CLOUDS BELOW 12,000 FEET WITH NO
       SIGNIFICANT WEATHER AND/OR OBSTRUCTIONS TO VISIBILITY.

  * THESE STATIONS DO NOT REPORT WEATHER SUCH AS RAIN...SNOW OR FOG.

NEZ001>004-019>022-054>056-210600-
NEBRASKA PANHANDLE

CITY           SKY/WX    TMP DP  RH WIND       PRES   REMARKS
SCOTTSBLUFF    CLOUDY    32  29  88 W6        29.41R WCI  26
ALLIANCE       CLOUDY    31  30  96 W7        29.38S WCI  24
CHADRON        CLOUDY    35  32  88 NW12      29.38S WCI  27
KIMBALL        CLOUDY    32  25  74 NW10      29.42S WCI  24
SIDNEY         CLOUDY    31  28  89 W8        29.41S WCI  23
$$

NEZ057>060-069>072-079>082-210600-
SOUTHWEST NEBRASKA

CITY           SKY/WX    TMP DP  RH WIND       PRES   REMARKS
NORTH PLATTE   CLOUDY    34  31  88 W6        29.41S WCI  29
IMPERIAL       CLOUDY    36  33  89 NW10      29.43R WCI  28
LEXINGTON      CLOUDY    36  34  92 NW3       29.40S
MCCOOK         CLOUDY    36  34  92 NW8       29.41S WCI  30
OGALLALA       DRIZZLE   38  35  90 W10       29.41S WCI  31
$$

NEZ005>010-023>029-035>040-094-210600-
NORTH CENTRAL NEBRASKA

CITY           SKY/WX    TMP DP  RH WIND       PRES   REMARKS
VALENTINE      CLOUDY    34  29  82 SW8       29.35R WCI  27
AINSWORTH      CLOUDY    35  32  90 SW6       29.35S WCI  30
BROKEN BOW     CLOUDY    35  33  92 W5        29.37S WCI  31
O`NEILL        FOG       39  39  99 S3        29.36F VSB 1
ORD            FOG       37  35  92 SW8       29.36F VSB 3/4 WCI  31
THEDFORD       DRIZZLE   35  32  90 SW6       29.38S WCI  30
$$

NEZ041-046>049-061>064-073>077-083>087-210600-
SOUTH CENTRAL NEBRASKA

CITY           SKY/WX    TMP DP  RH WIND       PRES   REMARKS
GRAND ISLAND   CLOUDY    37  37 100 SW7       29.39S FOG     WCI  32
AURORA         FOG       38  38 100 SW6       29.39S VSB 1/4 WCI  33
HASTINGS       CLOUDY    37  36  96 SW5       29.41R WCI  33
HEBRON         FOG       37  37 100 CALM      29.40F VSB 1/2
HOLDREGE       CLOUDY    36  35  97 W9        29.40R WCI  29
KEARNEY *      CLOUDY    36 -11  13 CALM      29.40R
YORK           FOG       37  37 100 CALM      29.39F VSB 1/2
$$

NEZ011>018-030>034-042>045-210600-
NORTHEAST NEBRASKA

CITY           SKY/WX    TMP DP  RH WIND       PRES   REMARKS
NORFOLK        CLOUDY    38  37  97 SE7       29.38F FOG     WCI  33
ALBION         RAIN     N/A N/A N/A CALM      29.38S VSB 1/2
BLAIR          FOG       40  40  99 SE6       29.40F VSB 1/4
FREMONT        FOG       40  40 100 SE6       29.40F VSB 1/4
TEKAMAH        LGT RAIN  38  37  97 SE7       29.41F VSB 1/4 WCI  33
WAYNE          DRIZZLE   38  38  98 SE8       29.39F WCI  32
$$

NEZ050>053-065>068-078-088>093-210600-
SOUTHEAST NEBRASKA

CITY           SKY/WX    TMP DP  RH WIND       PRES   REMARKS
LINCOLN        LGT RAIN  42  41  96 CALM      29.41F VSB 1/2
OMAHA EPPLEY   CLOUDY    41  38  89 SE6       29.41F FOG
BEATRICE       FOG       44  44 100 W6        29.39F VSB 3/4
FALLS CITY     FOG       44  44 100 S8        29.42R VSB 1
NEBRASKA CITY  LGT RAIN  41  41 100 SE5       29.40F VSB 1/2
PLATTSMOUTH    LGT RAIN  41  39  94 E5        29.41F VSB 1/4
$$

NEZ044-045-051>053-067-210600-
OMAHA AREA

CITY           SKY/WX    TMP DP  RH WIND       PRES   REMARKS
OMAHA EPPLEY   CLOUDY    41  38  89 SE6       29.41F FOG
BLAIR          FOG       40  40  99 SE6       29.40F VSB 1/4
FREMONT        FOG       40  40 100 SE6       29.40F VSB 1/4
MILLARD        LGT RAIN  42  41  97 SE3       29.41F VSB 1/4
OFFUTT AFB     LGT RAIN  41  41 100 E6        29.41F VSB 1/2
PLATTSMOUTH    LGT RAIN  41  39  94 E5        29.41F VSB 1/4
WAHOO          FOG       38  37  97 E5        29.40F VSB 1/4 WCI  34
$$




USA.gov is the U.S. government's official web portal to all federal, state and local government web resources and services.